Cuero, Texas, United States (77954)
Lat: 29.09N, Lon: 97.29W
Wx Zone: TXZ224
Local Info
Past Weather Observations for Today

NOTE: This archive is for the closest National Weather Service station to Cuero. Information may differ from the station used for current weather conditions.

Click here for Long-term Archive

Time Weather Temperature Dewpoint Humidity Pressure Winds Precip Visibility
22:51
Overcast
Fog And Mist
46°F / 8°C 46°F / 8°C 100% 30.27 in
(1025 mb)
N 9.2 mph
(N 15 kph)
0.00 in
(0.00 mm)
1 3/4SM
22:41
Overcast
Light Rain
46°F / 8°C 45°F / 7°C 93% 30.27 in
(1025 mb)
N 9.2 mph
(N 15 kph)
0.00 in
(0.00 mm)
1 1/2SM
22:10
Overcast
Fog And Mist
46°F / 8°C 46°F / 8°C 100% 30.27 in
(1025 mb)
N 11.5 mph
(N 19 kph)
- 2SM
21:51
Overcast
Fog And Mist
46°F / 8°C 46°F / 8°C 100% 30.27 in
(1025 mb)
N 9.2 mph
(N 15 kph)
0.01 in
(0.25 mm)
1 3/4SM
21:35
Overcast
Fog And Mist
46°F / 8°C 46°F / 8°C 100% 30.27 in
(1025 mb)
N 12.7 mph
(N 20 kph)
0.01 in
(0.25 mm)
1 1/2SM
21:13
Overcast
Fog And Mist
46°F / 8°C 46°F / 8°C 100% 30.27 in
(1025 mb)
N 9.2 mph
(N 15 kph)
- 1 1/4SM
20:51
Overcast
Fog And Mist
46°F / 8°C 46°F / 8°C 100% 30.27 in
(1025 mb)
N 11.5 mph
(N 19 kph)
- 1 1/2SM
20:20
Overcast
Fog And Mist
46°F / 8°C 46°F / 8°C 100% 30.24 in
(1024 mb)
N 11.5 mph
(N 19 kph)
- 1 1/2SM
19:51
Overcast
Fog And Mist
46°F / 8°C 46°F / 8°C 100% 30.21 in
(1023 mb)
N 11.5 mph
(N 19 kph)
- 1 1/4SM
19:47
Overcast
Fog And Mist
46°F / 8°C 46°F / 8°C 100% 30.21 in
(1023 mb)
N 11.5 mph
(N 19 kph)
- 1 1/4SM
19:12
Overcast
Fog And Mist
46°F / 8°C 46°F / 8°C 100% 30.21 in
(1023 mb)
N 9.2 mph
(N 15 kph)
- 1 3/4SM
19:01
Overcast
Fog And Mist
46°F / 8°C 46°F / 8°C 100% 30.21 in
(1023 mb)
N 11.5 mph
(N 19 kph)
- 2SM
18:51
Overcast
Fog And Mist
46°F / 8°C 46°F / 8°C 100% 30.21 in
(1023 mb)
N 11.5 mph
(N 19 kph)
- 3SM
18:29
Overcast
Fog And Mist
48°F / 9°C 46°F / 8°C 94% 30.21 in
(1023 mb)
N 11.5 mph
(N 19 kph)
- 3SM
17:51
Overcast
Fog And Mist
48°F / 9°C 46°F / 8°C 94% 30.21 in
(1023 mb)
N 10.4 mph
(N 17 kph)
- 2 1/2SM
17:48
Overcast
Fog And Mist
48°F / 9°C 46°F / 8°C 94% 30.21 in
(1023 mb)
N 11.5 mph
(N 19 kph)
- 2 1/2SM
16:51
Overcast
Fog And Mist
50°F / 10°C 48°F / 9°C 94% 30.18 in
(1022 mb)
N 11.5 mph
(N 19 kph)
- 3SM
16:43
Overcast
Fog And Mist
50°F / 10°C 48°F / 9°C 94% 30.18 in
(1022 mb)
N 12.7 mph
(N 20 kph)
- 4SM
15:51
Overcast
Fog And Mist
52°F / 11°C 48°F / 9°C 88% 30.18 in
(1022 mb)
N 9.2 mph
(N 15 kph)
- 5SM
14:51
Overcast
Fog And Mist
52°F / 11°C 48°F / 9°C 88% 30.18 in
(1022 mb)
N 9.2 mph
(N 15 kph)
- 4SM
14:46
Overcast
Fog And Mist
50°F / 10°C 48°F / 9°C 94% 30.18 in
(1022 mb)
N 9.2 mph
(N 15 kph)
- 4SM
14:08
Overcast
Fog And Mist
50°F / 10°C 48°F / 9°C 94% 30.18 in
(1022 mb)
N 10.4 mph
(N 17 kph)
- 2 1/2SM
13:51
Overcast
Fog And Mist
50°F / 10°C 48°F / 9°C 94% 30.18 in
(1022 mb)
N 11.5 mph
(N 19 kph)
- 3SM
12:53
Overcast
Fog And Mist
50°F / 10°C 48°F / 9°C 94% 30.21 in
(1023 mb)
NNW 9.2 mph
(NNW 15 kph)
- 3SM
12:51
Overcast
Fog And Mist
50°F / 10°C 48°F / 9°C 94% 30.21 in
(1023 mb)
NNW 9.2 mph
(NNW 15 kph)
- 4SM
11:51
Overcast
Fog And Mist
48°F / 9°C 48°F / 9°C 100% 30.24 in
(1024 mb)
N 9.2 mph
(N 15 kph)
- 3SM
10:55
Overcast
Fog And Mist
48°F / 9°C 46°F / 8°C 94% 30.24 in
(1024 mb)
N 12.7 mph
(N 20 kph)
- 3SM
10:51
Overcast
Fog And Mist
46°F / 8°C 46°F / 8°C 100% 30.24 in
(1024 mb)
N 11.5 mph
(N 19 kph)
- 5SM
09:51
Overcast
Fog And Mist
45°F / 7°C 45°F / 7°C 100% 30.24 in
(1024 mb)
NNW 10.4 mph
(NNW 17 kph)
- 4SM
09:29
Overcast
Fog And Mist
45°F / 7°C 45°F / 7°C 100% 30.24 in
(1024 mb)
N 9.2 mph
(N 15 kph)
- 3SM
09:11
Overcast
Fog And Mist
45°F / 7°C 45°F / 7°C 100% 30.21 in
(1023 mb)
N 16.1 mph
(N 26 kph)
- 2 1/2SM
08:58
Overcast
Fog And Mist
45°F / 7°C 45°F / 7°C 100% 30.21 in
(1023 mb)
N 13.8 mph
(N 22 kph)
- 1 3/4SM
08:51
Overcast
Fog And Mist
45°F / 7°C 45°F / 7°C 100% 30.21 in
(1023 mb)
N 12.7 mph
(N 20 kph)
- 1 1/4SM
08:21
Overcast
Fog And Mist
45°F / 7°C 45°F / 7°C 100% 30.21 in
(1023 mb)
N 13.8 mph
(N 22 kph)
- 1SM
07:51
Overcast
Fog And Mist
45°F / 7°C 45°F / 7°C 100% 30.21 in
(1023 mb)
N 11.5 mph
(N 19 kph)
- 3/4SM
07:42
Overcast
Fog And Mist
45°F / 7°C 45°F / 7°C 100% 30.21 in
(1023 mb)
N 11.5 mph
(N 19 kph)
- 3/4SM
07:20
Overcast
Fog And Mist
45°F / 7°C 45°F / 7°C 100% 30.18 in
(1022 mb)
N 9.2 mph
(N 15 kph)
- 1SM
07:13
Overcast
Fog And Mist
45°F / 7°C 45°F / 7°C 100% 30.18 in
(1022 mb)
N 9.2 mph
(N 15 kph)
- 1 1/2SM
06:51
Overcast
Fog And Mist
45°F / 7°C 45°F / 7°C 100% 30.18 in
(1022 mb)
NNW 10.4 mph
(NNW 17 kph)
- 2 1/2SM
06:44
Overcast
Fog And Mist
45°F / 7°C 45°F / 7°C 100% 30.18 in
(1022 mb)
N 10.4 mph
(N 17 kph)
- 2 1/2SM
06:35
Overcast
Fog And Mist
45°F / 7°C 45°F / 7°C 100% 30.18 in
(1022 mb)
N 8.1 mph
(N 13 kph)
- 3SM
05:51
Overcast
Fog And Mist
45°F / 7°C 45°F / 7°C 100% 30.18 in
(1022 mb)
N 11.5 mph
(N 19 kph)
0.00 in
(0.00 mm)
2SM
05:36
Overcast
Fog And Mist
45°F / 7°C 45°F / 7°C 100% 30.18 in
(1022 mb)
N 10.4 mph
(N 17 kph)
0.00 in
(0.00 mm)
1 3/4SM
05:01
Overcast
Fog And Mist
45°F / 7°C 45°F / 7°C 100% 30.15 in
(1021 mb)
NNW 11.5 mph
(NNW 19 kph)
0.00 in
(0.00 mm)
2SM
04:51
Overcast
Light Rain
45°F / 7°C 45°F / 7°C 100% 30.15 in
(1021 mb)
NNW 10.4 mph
(NNW 17 kph)
0.03 in
(0.76 mm)
3SM
04:49
Overcast
Light Rain
45°F / 7°C 45°F / 7°C 100% 30.15 in
(1021 mb)
NNW 11.5 mph
(NNW 19 kph)
0.03 in
(0.76 mm)
2 1/2SM
03:51
Overcast
Fog And Mist
46°F / 8°C 46°F / 8°C 100% 30.15 in
(1021 mb)
N 9.2 mph
(N 15 kph)
0.01 in
(0.25 mm)
1 1/2SM
03:02
Overcast
Light Rain
46°F / 8°C 46°F / 8°C 100% 30.15 in
(1021 mb)
N 10.4 mph
(N 17 kph)
0.01 in
(0.25 mm)
1 3/4SM
02:51
Overcast
Rain
46°F / 8°C 46°F / 8°C 100% 30.15 in
(1021 mb)
N 9.2 mph
(N 15 kph)
0.01 in
(0.25 mm)
1 1/4SM
02:49
Overcast
Rain
46°F / 8°C 46°F / 8°C 100% 30.15 in
(1021 mb)
N 8.1 mph
(N 13 kph)
0.01 in
(0.25 mm)
1 1/4SM
02:31
Overcast
Fog And Mist
48°F / 9°C 48°F / 9°C 100% 30.15 in
(1021 mb)
N 10.4 mph
(N 17 kph)
0.00 in
(0.00 mm)
1 1/2SM
01:51
Overcast
Light Rain
48°F / 9°C 48°F / 9°C 100% 30.18 in
(1022 mb)
N 9.2 mph
(N 15 kph)
0.00 in
(0.00 mm)
2SM
00:51
Overcast
Light Rain
50°F / 10°C 48°F / 9°C 94% 30.18 in
(1022 mb)
N 8.1 mph
(N 13 kph)
0.04 in
(1.02 mm)
2 1/2SM
Time Weather Temperature Dewpoint Humidity Pressure Winds Precip Visibility


Weather for websites

WeatherForYou.com, LLC is not responsible for any damages or problems caused by this service. Current weather conditions are obtained from the closest station including government and personal stations which may have varying degrees of accuracy. Weather forecasts are derived from the NOAA NDFD. Like all things, this site belongs to Jesus Christ... He just trusts me to maintain it. If you have any questions or comments email webmaster@weatherforyou.com

Copyright © 2015, WeatherForYou.com LLC. All rights reserved.